Content
SEND FEEDBACK

Daily
Averages
Monthly
Summary
Canada

ANCIENNE LORETTE, QUEBEC


Home > North America > Canada > Quebec
Elevation: 230 feet     Latitude: 46 48N     Longitude: 071 22W

WEATHER
 
SELECT A DAY
Number of Records: 191,965;   Date Range: 6/30/96 - 7/20/14
 
SHARE

PRINT THIS DATA

[ ← Previous Day ]
WEATHER ALMANAC - JUNE 12, 2013
[ Next Day → ]
[ °C ]   °F
Weather ElementAverageHighLow
Temperature60.5 °F66.2 °F (1:00 pm)55 °F (11:00 pm)
Dewpoint51.8 °F57.2 °F (1:00 pm) (7:00 pm)
Humidity77.1 %94 % (1:00 am)59 % (5:00 pm)
Barometer28.86 in29.83 in (7:00 pm) (7:00 pm)
Wind Speed5.3 mph9.2 mph (3:00 am)
Weather ElementAverage
Visibility18.1 mi
Wind DirectionSE (130.3 °)

Weather ElementTotal
Precipitation---
Heating Degree Days4.4 (Base 65)
Growing Degree Days10.6 (Base 50)
Averaged from 32 records on June 12, 2013
WEATHER CONDITIONS BREAKOUT
WIND DIRECTION BREAKOUT
WEATHER BY HOUR - JUNE 12, 2013
[ °C ]   °F
Local TimeTemperatureDewpointHumidityBarometerVisibilityWind DirectionWind SpeedGust SpeedPrecipitationEventsConditions
1:00 AM55.4 °F53.6 °F94 %29.76 in15.0 miNNE (20°)4.6 mphRainLight Rain Showers
2:00 AM56.0 °F54.0 °F90 %29.74 inNorth (350°)4.6 mph
2:00 AM55.4 °F53.6 °F94 %29.76 in15.0 miNorth (360°)8.1 mphRainLight Rain Showers
3:00 AM57.2 °F51.8 °F82 %29.74 in15.0 miNorth (10°)9.2 mphOvercast
4:00 AM57.2 °F51.8 °F82 %29.75 in15.0 miNorth (10°)4.6 mphRainLight Rain Showers
5:00 AM57.0 °F53.0 °F80 %29.74 inNorth4.6 mph
5:00 AM57.2 °F51.8 °F82 %29.76 in15.0 miNorth (10°)8.1 mphRainLight Rain Showers
6:00 AM57.2 °F51.8 °F82 %29.77 in20.0 miNorth (10°)9.2 mphRainLight Rain Showers
7:00 AM57.2 °F51.8 °F82 %29.79 in25.0 miNNE (30°)8.1 mphOvercast
8:00 AM58.0 °F53.0 °F77 %29.78 inNorth (350°)4.6 mph
8:00 AM57.2 °F51.8 °F82 %29.80 in20.0 miNorth (350°)8.1 mphRainLight Rain Showers
9:00 AM59.0 °F53.6 °F82 %29.80 in20.0 miNW (320°)4.6 mphRainLight Rain Showers
10:00 AM62.6 °F53.6 °F72 %29.80 in15.0 miNorth (10°)4.6 mphRainLight Rain Showers
11:00 AM64.0 °F53.0 °F60 %29.77 inNorth4.6 mph
11:00 AM64.4 °F51.8 °F64 %29.80 in20.0 miNorth (10°)4.6 mphOvercast
11:28 AM64.4 °F0.0 °F20.0 miEast (80°)4.6 mphRainLight Rain Showers
12:00 PM64.4 °F51.8 °F64 %29.80 in15.0 miEast (100°)2.3 mphMostly Cloudy
1:00 PM66.2 °F57.2 °F73 %29.81 in20.0 miEast (100°)8.1 mphOvercast
2:00 PM64.0 °F55.0 °F66 %29.79 inEast (90°)6.9 mph
2:00 PM64.4 °F55.4 °F73 %29.82 in20.0 miEast (80°)9.2 mphRainLight Rain Showers
3:00 PM64.4 °F53.6 °F68 %29.81 in20.0 miEast (90°)9.2 mphOvercast
4:00 PM64.4 °F53.6 °F68 %29.81 in20.0 miNE (50°)6.9 mphOvercast
5:00 PM66.0 °F55.0 °F59 %29.78 inESE (110°)1.2 mph
5:00 PM64.4 °F55.4 °F73 %29.81 in20.0 miEast (80°)3.5 mphOvercast
6:00 PM64.4 °F53.6 °F68 %29.81 in20.0 miESE (120°)2.3 mphOvercast
7:00 PM62.6 °F53.6 °F72 %29.83 in20.0 miSE (130°)4.6 mphOvercast
8:00 PM61.0 °F54.0 °F72 %29.80 inSE (140°)2.3 mph
8:00 PM60.8 °F53.6 °F77 %29.82 in20.0 miSSE (160°)3.5 mphOvercast
9:00 PM60.8 °F53.6 °F77 %29.82 in15.0 miWSW (250°)3.5 mphOvercast
10:00 PM57.2 °F53.6 °F88 %29.83 in15.0 miSW (220°)2.3 mphOvercast
11:00 PM55.0 °F54.0 °F94 %29.80 inWest (260°)3.5 mph
11:00 PM55.4 °F53.6 °F94 %29.82 in15.0 miWest (270°)4.6 mphOvercast
Hourly data recorded from CYQB, located miles away from Ancienne Lorette, Quebec







STORIES FROM OUR PARTNERS